Вернуться в каталог

STARLINK-4186

АктивенСвязьVLEO
NORAD 52880·PAYLOAD·🇺🇸 United States

Запущен Jun 17, 2022 с Cape Canaveral Space Force Station

Loading…

Ближайшие Пролёты (ближайшие 24 часа)

TLE

СвежийSource: CelesTrak SupGP

Эпоха: Sep 15, 2026, 02:36 UTC

1 52880C 22062BC  26258.10881944 -.00027890  00000+0 -82389-3 0  2581
2 52880  53.1578 228.6948 0001349  90.1625 183.6276 15.34409023    18

Отслеживайте STARLINK-4186 в реальном времени с AllMySat

Download on the App Store